CREW DRAGON 6 (55740 NORAD) Tracking and Keplerian Element Data

This shows tracking and keplerian element data for the satellite.

Feedback or suggestion? Click here.




ElementValue
Catalog55740
NameCREW DRAGON 6
Epoch Orbit38541
Epoch Day62.59626272
Epoch Year2023
RAAN131.5712
Inclination51.6412
Eccentricity0.0005952
Argument of Perigee51.3433
Mean Anonmoly101.2629
Mean Motion15.49611808
Decay Rate0.00020433
L11 55740U 23027A 23062.59626272 .00020433 00000+0 36991-3 0 9999
L22 55740 51.6412 131.5712 0005952 51.3433 101.2629 15.49611808385417



Live tracking and technical data element details for CREW DRAGON 6 (NORAD 55740). CREW DRAGON 6 can be tracked NOW for your location showing map with azimuth and elevation plus other details from your city location.







IsCatalogInMostPopularTable: catalog: 55740, numindb: 19
Update: records affected: 1



GetName: 55740 CREW DRAGON 6

Hit Count: updated at: Wed, 22 Mar 2023 16:10:00 GMT